STARLINK-1893, 46786

Orbit data source: Space-Track

STARLINK-1893, 46786 is a payload satellite owned by SpaceX/Seattle (US) in LEO that was launched on Sat, 24 Oct 2020 UTC via an FALCON 9 launch vehicle from the Air Force Eastern Test Range (AFETR). Payload-class satellites include a variety of spacecraft equipped with specific instruments for various scientific and technological missions. These include communications satellites like Starlink; space stations such as the ISS; scientific satellites like the Hubble; Earth observation satellites from companies like Planet Labs, Umbra, and HawkEye 360; GPS; miniature CubeSats for education and research; and military/defense satellites.

Loading next visibility...
Identifier
46786, 2020-074AZ
Orbit
LEO
Country
Flag of USUS
Related business
Manufacturer
SpaceX/Seattle
Mission
Partially operational Commercial Communications
Bus & Motor
STARLINK, Unknown motor
Mass
260 kg wet, ~248 kg dry
Launch date (UTC)
2020-10-24 (6 years ago)
Launch vehicle
FALCON 9
Launch site
Air Force Eastern Test Range (AFETR)
Object type
Payload
Rocket body
Debris
Shape & HBR
Box + 1 Pan, 10.1 m
Radar Cross Section
13.562 m², Large (>1 m²)

Expand to show TLE details & history
Last TLE update: 11 hours ago

TLE from 11 hours ago
0 STARLINK-1893
1 46786U 20074AZ  26126.14040223  .00075293  00000-0  88620-3 0  9990
2 46786  53.0464 346.5249 0006159 192.2259 167.8605 15.60742275306426
Epoch: 2026-05-06T03:22Z
TLE epoch observation values (Epoch: 2026-05-06T03:22:10.752Z)
Latitude
-0.00003°
Longitude
71.97491°
Altitude
390.484 km
Speed
7.675 km/s
True Right ascension
23h 06m 05s
True Declination
0° 00' 00"
Sunlit
Object was in daylight at epoch
Visualization orbit readout
Latitude
Unknown
Longitude
Unknown
Altitude
Unknown
Speed
Unknown
Apparent Right ascension
Unknown
Apparent Declination
Unknown
Sunlit
N/A
Visualization observer readout
Local Sidereal Time
22:29:07
Azimuth
Unknown
Elevation
Unknown
Doppler factor
Unknown
Orbital elements
Apogee altitude
389.956 km
Perigee altitude
381.624 km
Semi-major axis
6,763.927 km
Eccentricity
0.00062
Inclination
53.0464°
RAAN
346.5249°
Arg. of periapsis
192.2259°
True anomaly
167.87533°
Mean anomaly
167.8605°
Eccentric anomaly
167.86792°
Mean motion
3.90162 °/min
Orbital period
92.27 mins
BSTAR
0.0008862
Loading maneuver chart data...
Computing Atmospheric mass density...

Documentation

Showing up to 5 results
|